SCP
0 0 0 0 0 0 0 0 0 0 0 0 0 0 0 0 0 0 0 0 0 0 0 0 -0 0 0 0 0 0 0 0
0 0 0 0 0 0 0 0 0 0 0 0 0 0 0 0 0 0 0 0 -0 0 -0 -0 0 0 0 0 0 0 0 0
0 0 0 0 0 0 0 0 0 0 0 0 0 -0 -0 -0 -0 0 -0 0 -0 -0 -0 -0 -0 0 -0 -0 -0 -0 0 0
0 0 0 0 0 0 0 0 0 0 0 -0 -0 -0 0 -0 -0 -0 -0 -0 0 0 0 0 0 0 0 0 0 0 0 0
0 0 0 0 0 0 0 0 0 -0 -0 -0 -0 -0 -0 -0 0 0 0 0 0 0 0 0 0 0 0 0 0 0 0 0
0 0 0 0 0 0 0 0 -0 -0 -0 0 -0 -0 0 0 0 0 0 0 0 0 0 0 0 0 0 0 -0 0 -0 0
0 0 0 0 0 0 -0 -0 -0 -0 -0 -0 0 0 0 0 -0 0 0 0 0 0 -0 -0 -0 -0 -0 -0 -0 -0 0 0
0 0 -0 -0 -0 0 0 -0 -0 -0 -0 0 0 0 0 0 0 0 0 -0 0 0 0 0 -0 -0 -0 -0 -0 -0 -0 -0
0 0 -0 -0 -0 -0 -0 0 -0 -0 0 0 0 0 0 0 0 0 0 0 0 -0 0 0 0 -0 0 -0 -0 -0 -0 0
-0 -0 -0 -0 -0 -0 0 0 -0 -0 -0 -0 -0 0 0 0 -0 -0 -0 -0 -0 0 0 0 0 0 -0 0 0 -0 -0 0
-0 -0 -0 0 -0 -0 -0 -0 0 0 -0 0 -0 -0 -0 -0 -0 -0 -0 -0 -0 -0 0 0 0 0 0 0 0 0 0 0
-0 0 -0 -0 -0 -0 0 0 0 0 0 -0 -0 -0 0 -0 -0 -0 -0 -0 -0 -0 0 0 0 0 0 0 0 -0 -0 0
-0 -0 0 0 0 -0 0 0 -0 -0 -0 -0 0 0 0 0 0 -0 0 0 0 0 0 0 0 0 0 0 0 0 0 0
0 0 -0 -0 -0 -0 -0 -0 0 0 -0 -0 -0 -0 0 0 0 0 0 0 -0 0 0 0 0 0 0 0 0 0 0 0
0 0 0 -0 -0 -0 -0 0 -0 -0 -0 -0 0 0 0 0 0 0 0 0 0 0 0 0 0 0 0 0 0 0 0 0
-0 0 -0 -0 -0 -0 0 0 -0 -0 0 0 0 0 0 0 0 0 0 0 0 0 0 0 0 0 0 0 0 0 0 0
0 0 -0 0 0 0 0 0 -0 -0 -0 0 0 0 0 0 0 0 0 0 0 0 0 0 0 0 0 0 0 0 0 0
0 0 0 0 0 0 0 0 0 0 0 0 0 0 0 0 0 0 0 0 0 0 0 0 0 0 0 0 0 0 0 0
-0 -0 0 0 -0 -0 0 0 0 0 0 0 0 0 0 0 0 0 0 0 0 0 0 0 0 0 0 0 0 0 0 0
-0 -0 0 0 -0 0 0 0 0 0 0 0 0 0 0 0 0 0 0 0 0 0 0 0 0 0 0 0 0 0 0 0
Wind_Speed_500mb
20 21 24 28 32 33 34 36 36 40 37 39 38 36 36 34 33 31 30 31 31 32 29 31 29 27 33 22 20 19 24 26
21 21 23 26 31 32 33 33 32 35 36 32 33 35 34 35 37 34 33 31 29 29 30 30 34 33 24 26 22 29 27 24
20 21 21 24 28 30 31 30 32 34 37 38 37 33 31 31 30 25 28 26 28 30 31 29 27 20 31 31 26 22 24 20
18 19 20 24 24 26 27 27 30 34 32 34 32 30 32 35 32 29 26 28 28 28 34 36 37 33 25 21 18 15 19 21
15 14 16 22 20 20 24 23 27 29 33 32 32 31 32 31 31 31 35 39 44 47 49 54 57 54 44 38 29 29 30 35
11 12 19 16 15 16 18 21 24 25 27 28 31 30 33 38 43 40 40 44 46 42 44 46 46 52 50 45 40 33 29 28
9 14 16 14 15 13 16 17 21 22 25 24 25 28 32 36 41 44 45 35 36 39 37 40 38 47 38 34 27 22 22 23
11 16 13 13 13 12 12 15 17 20 26 25 27 44 43 39 40 35 33 27 34 26 31 31 31 30 40 30 30 29 24 26
15 15 13 11 11 11 13 14 17 25 29 35 29 29 37 27 27 35 29 28 30 26 23 25 26 42 51 50 41 27 28 26
15 16 15 13 11 11 12 14 21 30 26 24 29 23 24 29 28 24 28 25 24 23 26 25 28 28 37 40 48 44 28 30
19 23 21 22 26 21 29 29 30 26 21 23 21 21 20 23 27 26 22 26 27 25 26 27 28 29 29 29 37 35 35 25
14 23 27 26 32 29 29 25 18 19 19 20 20 23 27 29 23 28 32 31 25 22 27 23 26 28 35 37 30 28 25 26
15 22 22 22 21 23 22 20 17 18 18 19 18 20 19 24 34 35 30 43 39 31 23 22 27 26 34 38 42 40 34 31
17 16 15 17 16 15 18 19 18 16 16 18 16 16 16 15 15 24 34 39 41 38 33 31 24 33 33 33 32 45 34 38
18 19 17 15 14 15 15 16 17 17 15 14 15 15 15 16 17 17 18 25 29 32 42 38 39 39 36 30 35 33 39 37
19 17 14 12 11 11 10 12 13 14 12 21 13 13 14 14 16 18 18 18 20 24 28 36 39 42 43 40 37 33 32 34
17 16 12 9 7 5 5 7 8 11 10 6 10 13 15 15 16 17 17 18 19 20 22 26 27 33 35 37 38 32 34 37
17 13 8 4 3 5 5 4 2 6 11 15 15 13 14 14 15 16 16 17 19 20 22 26 21 23 26 28 30 33 35 37
14 10 7 5 5 6 8 6 5 3 5 9 15 13 14 14 15 15 16 17 18 19 18 26 25 25 24 26 28 31 34 36
13 9 7 4 2 6 7 7 3 3 7 8 10 13 13 14 11 15 16 17 18 19 18 20 26 21 22 24 26 28 31 33
Wind_Direction_500mb
340 347 349 348 347 346 348 349 349 351 349 351 350 353 350 345 341 341 345 339 337 334 337 339 348 2 359 348 359 348 351 341
343 346 347 348 351 351 354 355 354 353 352 349 347 345 346 346 349 346 343 349 341 347 342 343 345 355 333 337 345 352 344 339
345 346 344 347 352 356 359 359 358 341 356 360 0 353 352 334 333 337 344 359 351 348 345 349 346 352 321 327 336 347 329 334
345 340 342 346 351 354 355 354 350 343 358 2 3 360 349 12 6 11 8 12 11 15 24 24 24 21 14 18 30 7 352 347
5 345 338 339 347 355 347 346 346 354 360 7 17 23 20 19 26 40 51 57 46 47 53 52 49 49 50 49 44 45 51 54
349 337 327 355 353 343 340 347 354 359 13 24 32 34 42 55 58 57 50 45 42 51 54 49 45 56 63 61 54 40 45 39
354 333 351 2 341 337 350 2 11 18 25 31 40 53 56 54 50 59 52 39 45 41 45 45 40 43 47 53 46 39 14 27
341 348 6 356 335 5 14 23 25 38 46 60 65 63 50 65 53 38 35 38 40 45 42 41 34 28 32 37 38 26 24 24
11 18 18 17 26 32 40 45 57 65 68 72 53 48 55 41 34 36 34 31 35 37 33 37 27 38 30 28 28 35 33 26
40 35 44 38 48 52 57 61 80 82 75 76 69 48 45 39 35 35 33 32 33 38 37 33 27 15 15 15 18 29 44 28
64 62 55 64 74 74 90 88 78 80 76 59 63 51 50 46 37 38 35 32 31 28 28 27 22 19 15 17 14 15 14 13
70 65 78 77 88 87 80 73 76 69 71 62 59 57 52 53 57 39 41 37 31 25 28 23 17 14 22 28 23 15 15 12
87 80 91 96 82 72 66 72 74 66 62 64 57 51 48 30 46 52 42 36 31 33 36 19 20 14 24 30 31 33 30 21
102 104 91 87 89 84 77 68 64 66 60 51 58 44 40 33 16 2 14 22 26 27 37 40 21 26 26 30 36 39 29 25
115 111 108 106 98 86 72 60 54 48 45 52 37 37 29 24 19 17 3 5 11 9 21 27 28 25 24 37 32 18 21 21
122 115 109 108 96 81 65 50 40 38 23 39 34 23 17 17 15 16 17 20 14 1 357 10 15 21 24 32 34 23 17 15
129 120 115 103 80 50 19 27 27 32 37 7 32 14 10 20 16 15 15 17 16 11 4 0 357 3 14 20 22 16 14 12
133 127 117 89 42 352 339 354 335 15 348 37 52 16 8 10 11 12 11 11 9 6 8 7 5 24 14 14 15 15 14 11
151 140 125 98 66 41 26 30 36 7 353 337 19 7 360 360 2 4 5 5 4 5 360 12 35 25 9 12 12 12 11 10
161 155 147 124 70 68 30 3 342 348 348 342 350 353 352 354 357 358 357 357 358 359 359 352 12 12 7 8 8 9 8 9
Wind_Speed_850mb
20 21 24 28 32 33 34 36 36 40 37 39 38 36 36 34 33 31 30 31 31 32 29 31 29 27 33 22 20 19 24 26
21 21 23 26 31 32 33 33 32 35 36 32 33 35 34 35 37 34 33 31 29 29 30 30 34 33 24 26 22 29 27 24
20 21 21 24 28 30 31 30 32 34 37 38 37 33 31 31 30 25 28 26 28 30 31 29 27 20 31 31 26 22 24 20
18 19 20 24 24 26 27 27 30 34 32 34 32 30 32 35 32 29 26 28 28 28 34 36 37 33 25 21 18 15 19 21
15 14 16 22 20 20 24 23 27 29 33 32 32 31 32 31 31 31 35 39 44 47 49 54 57 54 44 38 29 29 30 35
11 12 19 16 15 16 18 21 24 25 27 28 31 30 33 38 43 40 40 44 46 42 44 46 46 52 50 45 40 33 29 28
9 14 16 14 15 13 16 17 21 22 25 24 25 28 32 36 41 44 45 35 36 39 37 40 38 47 38 34 27 22 22 23
11 16 13 13 13 12 12 15 17 20 26 25 27 44 43 39 40 35 33 27 34 26 31 31 31 30 40 30 30 29 24 26
15 15 13 11 11 11 13 14 17 25 29 35 29 29 37 27 27 35 29 28 30 26 23 25 26 42 51 50 41 27 28 26
15 16 15 13 11 11 12 14 21 30 26 24 29 23 24 29 28 24 28 25 24 23 26 25 28 28 37 40 48 44 28 30
19 23 21 22 26 21 29 29 30 26 21 23 21 21 20 23 27 26 22 26 27 25 26 27 28 29 29 29 37 35 35 25
14 23 27 26 32 29 29 25 18 19 19 20 20 23 27 29 23 28 32 31 25 22 27 23 26 28 35 37 30 28 25 26
15 22 22 22 21 23 22 20 17 18 18 19 18 20 19 24 34 35 30 43 39 31 23 22 27 26 34 38 42 40 34 31
17 16 15 17 16 15 18 19 18 16 16 18 16 16 16 15 15 24 34 39 41 38 33 31 24 33 33 33 32 45 34 38
18 19 17 15 14 15 15 16 17 17 15 14 15 15 15 16 17 17 18 25 29 32 42 38 39 39 36 30 35 33 39 37
19 17 14 12 11 11 10 12 13 14 12 21 13 13 14 14 16 18 18 18 20 24 28 36 39 42 43 40 37 33 32 34
17 16 12 9 7 5 5 7 8 11 10 6 10 13 15 15 16 17 17 18 19 20 22 26 27 33 35 37 38 32 34 37
17 13 8 4 3 5 5 4 2 6 11 15 15 13 14 14 15 16 16 17 19 20 22 26 21 23 26 28 30 33 35 37
14 10 7 5 5 6 8 6 5 3 5 9 15 13 14 14 15 15 16 17 18 19 18 26 25 25 24 26 28 31 34 36
13 9 7 4 2 6 7 7 3 3 7 8 10 13 13 14 11 15 16 17 18 19 18 20 26 21 22 24 26 28 31 33
Wind_Direction_850mb
340 347 349 348 347 346 348 349 349 351 349 351 350 353 350 345 341 341 345 339 337 334 337 339 348 2 359 348 359 348 351 341
343 346 347 348 351 351 354 355 354 353 352 349 347 345 346 346 349 346 343 349 341 347 342 343 345 355 333 337 345 352 344 339
345 346 344 347 352 356 359 359 358 341 356 360 0 353 352 334 333 337 344 359 351 348 345 349 346 352 321 327 336 347 329 334
345 340 342 346 351 354 355 354 350 343 358 2 3 360 349 12 6 11 8 12 11 15 24 24 24 21 14 18 30 7 352 347
5 345 338 339 347 355 347 346 346 354 360 7 17 23 20 19 26 40 51 57 46 47 53 52 49 49 50 49 44 45 51 54
349 337 327 355 353 343 340 347 354 359 13 24 32 34 42 55 58 57 50 45 42 51 54 49 45 56 63 61 54 40 45 39
354 333 351 2 341 337 350 2 11 18 25 31 40 53 56 54 50 59 52 39 45 41 45 45 40 43 47 53 46 39 14 27
341 348 6 356 335 5 14 23 25 38 46 60 65 63 50 65 53 38 35 38 40 45 42 41 34 28 32 37 38 26 24 24
11 18 18 17 26 32 40 45 57 65 68 72 53 48 55 41 34 36 34 31 35 37 33 37 27 38 30 28 28 35 33 26
40 35 44 38 48 52 57 61 80 82 75 76 69 48 45 39 35 35 33 32 33 38 37 33 27 15 15 15 18 29 44 28
64 62 55 64 74 74 90 88 78 80 76 59 63 51 50 46 37 38 35 32 31 28 28 27 22 19 15 17 14 15 14 13
70 65 78 77 88 87 80 73 76 69 71 62 59 57 52 53 57 39 41 37 31 25 28 23 17 14 22 28 23 15 15 12
87 80 91 96 82 72 66 72 74 66 62 64 57 51 48 30 46 52 42 36 31 33 36 19 20 14 24 30 31 33 30 21
102 104 91 87 89 84 77 68 64 66 60 51 58 44 40 33 16 2 14 22 26 27 37 40 21 26 26 30 36 39 29 25
115 111 108 106 98 86 72 60 54 48 45 52 37 37 29 24 19 17 3 5 11 9 21 27 28 25 24 37 32 18 21 21
122 115 109 108 96 81 65 50 40 38 23 39 34 23 17 17 15 16 17 20 14 1 357 10 15 21 24 32 34 23 17 15
129 120 115 103 80 50 19 27 27 32 37 7 32 14 10 20 16 15 15 17 16 11 4 0 357 3 14 20 22 16 14 12
133 127 117 89 42 352 339 354 335 15 348 37 52 16 8 10 11 12 11 11 9 6 8 7 5 24 14 14 15 15 14 11
151 140 125 98 66 41 26 30 36 7 353 337 19 7 360 360 2 4 5 5 4 5 360 12 35 25 9 12 12 12 11 10
161 155 147 124 70 68 30 3 342 348 348 342 350 353 352 354 357 358 357 357 358 359 359 352 12 12 7 8 8 9 8 9